,,PA_Meas_PMT16A,,PR_Meas_QMR101_102,,RH_Meas_QMH101,,SR_Meas_QMS101,,TA_Meas_QMH101,,GenWind,,GenWind,
time,status,PA,status,PR,status,RH,status,SR,status,TA,status,DirAvg,status,SpdAvg,
2012-09-17, 07:28:04,VALID,918.686,VALID,0,VALID,93.5088,VALID,119.582,VALID,20.2114,VALID,167,VALID,0,
2012-09-17, 07:29:04,VALID,919.536,VALID,0,VALID,93.6994,VALID,126.566,VALID,20.2699,VALID,175,VALID,0,
2012-09-17, 07:30:04,VALID,919.01,VALID,0,VALID,93.4555,VALID,119.26,VALID,20.2894,VALID,175,VALID,0,
2012-09-17, 07:31:04,VALID,918.855,VALID,0,VALID,93.3411,VALID,111.094,VALID,20.3089,VALID,175,VALID,0,
2012-09-17, 07:32:04,VALID,918.457,VALID,0,VALID,93.1581,VALID,108.516,VALID,20.3479,VALID,199,VALID,0,
2012-09-17, 07:40:04,VALID,919.457,VALID,0,VALID,92.4415,VALID,109.16,VALID,20.4064,VALID,179,VALID,0,
2012-09-17, 07:41:04,VALID,920.983,VALID,0,VALID,92.4263,VALID,115.392,VALID,20.4259,VALID,179,VALID,0,
2012-09-17, 07:42:04,VALID,919.888,VALID,0,VALID,92.411,VALID,114.21,VALID,20.4665,VALID,179,VALID,0,
2012-09-17, 07:43:04,VALID,919.543,VALID,0,VALID,92.0451,VALID,116.036,VALID,20.4454,VALID,179,VALID,0,
2012-09-17, 07:44:04,VALID,919.777,VALID,0,VALID,92.0451,VALID,111.416,VALID,20.4259,VALID,179,VALID,0,
2012-09-17, 07:45:04,VALID,919.184,VALID,0,VALID,92.2128,VALID,111.524,VALID,20.465,VALID,179,VALID,0,
2012-09-17, 07:46:04,VALID,919.384,VALID,0,VALID,92.4034,VALID,112.061,VALID,20.486,VALID,179,VALID,0,
2012-09-17, 07:47:04,VALID,919.043,VALID,0,VALID,92.4568,VALID,105.722,VALID,20.465,VALID,179,VALID,0,
2012-09-17, 07:48:04,VALID,920.444,VALID,0,VALID,92.6702,VALID,100.995,VALID,20.4845,VALID,179,VALID,0,
2012-09-17, 07:49:04,VALID,918.765,VALID,0,VALID,92.1823,VALID,103.896,VALID,20.486,VALID,179,VALID,0,
2012-09-17, 07:50:04,VALID,918.671,VALID,0,VALID,92.2738,VALID,105.937,VALID,20.4845,VALID,179,VALID,0,
2012-09-17, 07:51:04,VALID,919.794,VALID,0,VALID,92.3958,VALID,110.557,VALID,20.543,VALID,179,VALID,0,
2012-09-17, 07:52:04,VALID,919.98,VALID,0,VALID,92.0375,VALID,111.846,VALID,20.5836,VALID,179,VALID,0,
2012-09-17, 07:53:04,VALID,919.291,VALID,0,VALID,91.7402,VALID,109.483,VALID,20.5641,VALID,179,VALID,0,
2012-09-17, 07:54:04,VALID,918.595,VALID,0,VALID,91.8927,VALID,110.127,VALID,20.5641,VALID,179,VALID,0,
2012-09-17, 07:55:04,VALID,920.126,VALID,0,VALID,91.885,VALID,118.508,VALID,20.5641,VALID,179,VALID,0,
2012-09-17, 07:56:04,VALID,920.183,VALID,0,VALID,91.5725,VALID,125.062,VALID,20.5641,VALID,180,VALID,0,
2012-09-17, 07:57:04,VALID,921.117,VALID,0,VALID,91.4505,VALID,132.582,VALID,20.5836,VALID,180,VALID,0,
2012-09-17, 07:58:04,VALID,920.054,VALID,0,VALID,91.4886,VALID,135.161,VALID,20.6226,VALID,180,VALID,0,
2012-09-17, 07:59:04,VALID,920.369,VALID,0,VALID,91.4048,VALID,134.624,VALID,20.6811,VALID,180,VALID,0,
2012-09-17, 08:00:04,VALID,920.114,VALID,0,VALID,90.8711,VALID,133.012,VALID,20.7006,VALID,180,VALID,0,
2012-09-17, 08:01:04,VALID,919.418,VALID,0,VALID,90.4366,VALID,139.351,VALID,20.6795,VALID,180,VALID,0,
2012-09-17, 08:02:04,VALID,920.102,VALID,0,VALID,90.7034,VALID,152.352,VALID,20.699,VALID,180,VALID,0,
2012-09-17, 08:03:04,VALID,920.066,VALID,0,VALID,90.7491,VALID,159.658,VALID,20.7381,VALID,180,VALID,0,
2012-09-17, 08:04:04,VALID,920.968,VALID,0,VALID,90.7034,VALID,159.872,VALID,20.7771,VALID,180,VALID,0,
2012-09-17, 08:05:04,VALID,920.383,VALID,0,VALID,90.6348,VALID,158.153,VALID,20.7966,VALID,180,VALID,0,
2012-09-17, 08:06:04,VALID,919.424,VALID,0,VALID,90.7263,VALID,155.682,VALID,20.8567,VALID,180,VALID,0,
2012-09-17, 08:07:04,VALID,919.832,VALID,0,VALID,91.077,VALID,158.046,VALID,20.9152,VALID,180,VALID,0,
2012-09-17, 08:08:04,VALID,920.915,VALID,0,VALID,90.6348,VALID,156.757,VALID,20.9917,VALID,180,VALID,0,
2012-09-17, 08:09:04,VALID,920.268,VALID,0,VALID,89.9716,VALID,159.443,VALID,20.9917,VALID,180,VALID,0,
2012-09-17, 08:10:04,VALID,920.013,VALID,0,VALID,89.4608,VALID,169.65,VALID,21.0112,VALID,180,VALID,0,
2012-09-17, 08:11:04,VALID,920.053,VALID,0,VALID,89.255,VALID,173.732,VALID,21.0713,VALID,180,VALID,0,
2012-09-17, 08:12:04,VALID,920.086,VALID,0,VALID,89.0796,VALID,172.765,VALID,21.1282,VALID,180,VALID,0,
2012-09-17, 08:13:04,VALID,920.122,VALID,0,VALID,88.4011,VALID,176.096,VALID,21.1266,VALID,180,VALID,0,
2012-09-17, 08:14:04,VALID,920.143,VALID,0,VALID,88.5307,VALID,181.898,VALID,21.1673,VALID,180,VALID,0,
2012-09-17, 08:15:04,VALID,920.171,VALID,0,VALID,88.7289,VALID,179.856,VALID,21.2258,VALID,180,VALID,0,
2012-09-17, 08:16:04,VALID,920.166,VALID,0,VALID,88.9958,VALID,181.146,VALID,21.3038,VALID,180,VALID,0,
2012-09-17, 08:17:04,VALID,920.208,VALID,0,VALID,89.1787,VALID,196.51,VALID,21.3624,VALID,180,VALID,0,
2012-09-17, 08:18:04,VALID,920.244,VALID,0,VALID,89.1559,VALID,209.295,VALID,21.4794,VALID,180,VALID,0,
2012-09-17, 08:19:04,VALID,920.263,VALID,0,VALID,88.302,VALID,184.154,VALID,21.577,VALID,180,VALID,0,
2012-09-17, 08:20:04,VALID,920.269,VALID,0,VALID,88.2715,VALID,207.899,VALID,21.616,VALID,180,VALID,0,
2012-09-17, 08:21:04,VALID,920.268,VALID,0,VALID,87.6922,VALID,199.948,VALID,21.577,VALID,55,VALID,0,
2012-09-17, 08:22:04,VALID,920.26,VALID,0,VALID,87.9437,VALID,226.916,VALID,21.5185,VALID,72,VALID,0,
2012-09-17, 08:23:04,VALID,920.268,VALID,0,VALID,87.8065,VALID,240.883,VALID,21.3998,VALID,72,VALID,0,
2012-09-17, 08:24:04,VALID,920.293,VALID,0,VALID,87.9895,VALID,260.545,VALID,21.3429,VALID,72,VALID,0,
2012-09-17, 08:25:04,VALID,920.322,VALID,0,VALID,88.5612,VALID,285.364,VALID,21.3608,VALID,72,VALID,0,
2012-09-17, 08:26:04,VALID,920.287,VALID,0,VALID,88.2487,VALID,296.752,VALID,21.4388,VALID,72,VALID,0,
2012-09-17, 08:27:04,VALID,920.282,VALID,0,VALID,87.5244,VALID,301.05,VALID,21.577,VALID,72,VALID,0,
2012-09-17, 08:28:04,VALID,920.278,VALID,0,VALID,87.0747,VALID,295.893,VALID,21.6746,VALID,72,VALID,0,
2012-09-17, 08:29:04,VALID,920.308,VALID,0,VALID,86.6935,VALID,284.934,VALID,21.7721,VALID,72,VALID,0,
2012-09-17, 08:30:04,VALID,920.317,VALID,0,VALID,86.5791,VALID,274.082,VALID,21.9087,VALID,72,VALID,0,
2012-09-17, 08:31:04,VALID,920.32,VALID,0,VALID,86.5944,VALID,255.388,VALID,22.0649,VALID,72,VALID,0,
2012-09-17, 08:32:04,VALID,920.326,VALID,0,VALID,85.9616,VALID,230.246,VALID,22.2388,VALID,72,VALID,0,
2012-09-17, 08:33:04,VALID,920.367,VALID,0,VALID,84.7876,VALID,215.849,VALID,22.3754,VALID,72,VALID,0,
2012-09-17, 08:34:04,VALID,920.271,VALID,0,VALID,83.8347,VALID,182.543,VALID,22.3967,VALID,72,VALID,0,
2012-09-17, 08:35:04,VALID,920.296,VALID,0,VALID,84.3988,VALID,184.691,VALID,22.4145,VALID,71,VALID,0,
2012-09-17, 08:36:04,VALID,920.259,VALID,0,VALID,84.8181,VALID,186.733,VALID,22.4747,VALID,72,VALID,0,
2012-09-17, 08:37:04,VALID,920.307,VALID,0,VALID,84.0482,VALID,197.692,VALID,22.473,VALID,47,VALID,0,
2012-09-17, 08:38:04,VALID,920.292,VALID,0,VALID,84.4065,VALID,223.048,VALID,22.4925,VALID,47,VALID,0,
2012-09-17, 08:39:04,VALID,920.306,VALID,0,VALID,84.3607,VALID,231.106,VALID,22.473,VALID,47,VALID,0,
2012-09-17, 08:40:04,VALID,920.291,VALID,0,VALID,84.5284,VALID,241.42,VALID,22.4713,VALID,47,VALID,0,
2012-09-17, 08:41:04,VALID,920.252,VALID,0,VALID,83.5755,VALID,276.339,VALID,22.5121,VALID,47,VALID,0,
2012-09-17, 08:42:04,VALID,920.272,VALID,0,VALID,84.3607,VALID,294.819,VALID,22.4145,VALID,47,VALID,0,
2012-09-17, 08:43:04,VALID,920.251,VALID,0,VALID,85.5042,VALID,286.868,VALID,22.4145,VALID,47,VALID,0,
2012-09-17, 08:44:04,VALID,920.256,VALID,0,VALID,85.2069,VALID,249.263,VALID,22.4925,VALID,47,VALID,0,
2012-09-17, 08:45:04,VALID,920.254,VALID,0,VALID,84.7495,VALID,240.346,VALID,22.4925,VALID,47,VALID,0,
2012-09-17, 08:46:04,VALID,920.259,VALID,0,VALID,84.9706,VALID,269.57,VALID,22.473,VALID,88,VALID,0,
2012-09-17, 08:47:04,VALID,920.249,VALID,0,VALID,86.137,VALID,256.032,VALID,22.5121,VALID,71,VALID,0,
2012-09-17, 08:48:04,VALID,920.247,VALID,0,VALID,85.6872,VALID,267.206,VALID,22.5706,VALID,50,VALID,0,
2012-09-17, 08:49:04,VALID,920.235,VALID,0,VALID,84.4751,VALID,273.975,VALID,22.5901,VALID,23,VALID,0,
2012-09-17, 08:50:04,VALID,920.23,VALID,0,VALID,83.6441,VALID,293.422,VALID,22.5511,VALID,23,VALID,0,
2012-09-17, 08:51:04,VALID,920.269,VALID,0,VALID,83.606,VALID,305.133,VALID,22.5121,VALID,23,VALID,0,
2012-09-17, 08:52:04,VALID,920.232,VALID,0,VALID,83.6289,VALID,325.439,VALID,22.5706,VALID,23,VALID,0,
2012-09-17, 08:53:04,VALID,920.26,VALID,0,VALID,83.423,VALID,356.812,VALID,22.6096,VALID,23,VALID,0,
2012-09-17, 08:54:04,VALID,920.23,VALID,0,VALID,84.3912,VALID,381.309,VALID,22.5901,VALID,347,VALID,0,
2012-09-17, 08:55:04,VALID,920.219,VALID,0,VALID,83.9643,VALID,410.962,VALID,22.6682,VALID,342,VALID,0,
2012-09-17, 08:56:04,VALID,920.18,VALID,0,VALID,83.7051,VALID,317.811,VALID,22.7853,VALID,10,VALID,0,
2012-09-17, 08:57:04,VALID,920.229,VALID,0,VALID,83.1638,VALID,303.199,VALID,22.8439,VALID,25,VALID,0,
2012-09-17, 08:58:04,VALID,920.211,VALID,0,VALID,82.9351,VALID,294.389,VALID,22.8048,VALID,25,VALID,0,
2012-09-17, 08:59:04,VALID,920.192,VALID,0,VALID,84.0787,VALID,291.273,VALID,22.8048,VALID,25,VALID,0,
2012-09-17, 09:00:04,VALID,920.178,VALID,0,VALID,83.4307,VALID,289.554,VALID,22.8634,VALID,25,VALID,0,
2012-09-17, 09:01:04,VALID,920.178,VALID,0,VALID,83.2325,VALID,372.821,VALID,22.8829,VALID,25,VALID,0,
2012-09-17, 09:02:04,VALID,920.186,VALID,0,VALID,83.4535,VALID,385.391,VALID,22.9397,VALID,31,VALID,0,
2012-09-17, 09:03:04,VALID,920.175,VALID,0,VALID,82.2338,VALID,442.013,VALID,23.0781,VALID,31,VALID,0,
2012-09-17, 09:04:04,VALID,920.194,VALID,0,VALID,82.9275,VALID,493.047,VALID,23.2325,VALID,31,VALID,0,
2012-09-17, 09:05:04,VALID,920.204,VALID,0,VALID,82.1423,VALID,448.997,VALID,23.4277,VALID,31,VALID,0,
2012-09-17, 09:06:04,VALID,920.195,VALID,0,VALID,79.6418,VALID,437.93,VALID,23.5271,VALID,304,VALID,0,
2012-09-17, 09:07:04,VALID,920.198,VALID,0,VALID,79.779,VALID,407.309,VALID,23.4863,VALID,241,VALID,0,
2012-09-17, 09:08:04,VALID,920.182,VALID,0,VALID,80.1069,VALID,308.786,VALID,23.2715,VALID,256,VALID,0,
2012-09-17, 09:09:04,VALID,920.193,VALID,0,VALID,79.9468,VALID,285.364,VALID,23.213,VALID,256,VALID,0,
2012-09-17, 09:10:04,VALID,920.146,VALID,0,VALID,80.9912,VALID,320.819,VALID,23.1154,VALID,256,VALID,0,
2012-09-17, 09:11:04,VALID,920.154,VALID,0,VALID,80.6862,VALID,297.934,VALID,23.0763,VALID,274,VALID,0,
2012-09-17, 09:12:04,VALID,920.181,VALID,0,VALID,81.845,VALID,345.638,VALID,23.0763,VALID,274,VALID,0,
2012-09-17, 09:13:04,VALID,920.167,VALID,0,VALID,81.5248,VALID,393.449,VALID,23.1349,VALID,274,VALID,0,
2012-09-17, 09:14:04,VALID,920.169,VALID,0,VALID,79.9315,VALID,403.227,VALID,23.2325,VALID,217,VALID,0,
2012-09-17, 09:15:04,VALID,920.181,VALID,0,VALID,80.3889,VALID,495.196,VALID,23.1757,VALID,249,VALID,0,
2012-09-17, 09:16:04,VALID,920.162,VALID,0,VALID,80.0459,VALID,341.77,VALID,23.0373,VALID,249,VALID,0,
2012-09-17, 09:17:04,VALID,920.192,VALID,0,VALID,80.7396,VALID,396.888,VALID,23.0976,VALID,249,VALID,0,
2012-09-17, 09:18:04,VALID,920.138,VALID,0,VALID,80.5414,VALID,403.442,VALID,23.2343,VALID,249,VALID,0,
2012-09-17, 09:19:04,VALID,920.179,VALID,0,VALID,79.2607,VALID,352.729,VALID,23.3514,VALID,249,VALID,0,
2012-09-17, 09:20:04,VALID,920.159,VALID,0,VALID,79.8858,VALID,465.865,VALID,23.3106,VALID,265,VALID,0,
2012-09-17, 09:21:04,VALID,920.179,VALID,0,VALID,78.9252,VALID,410.64,VALID,23.4295,VALID,265,VALID,0,
2012-09-17, 09:22:04,VALID,920.14,VALID,0,VALID,79.5199,VALID,357.994,VALID,23.4277,VALID,265,VALID,0,
2012-09-17, 09:23:04,VALID,920.149,VALID,0,VALID,80.9226,VALID,375.185,VALID,23.4277,VALID,265,VALID,0,
2012-09-17, 09:24:04,VALID,920.144,VALID,0,VALID,79.3293,VALID,312.331,VALID,23.4277,VALID,265,VALID,0,
2012-09-17, 09:25:04,VALID,920.127,VALID,0,VALID,79.4817,VALID,487.461,VALID,23.4863,VALID,290,VALID,0,
2012-09-17, 09:26:04,VALID,920.134,VALID,0,VALID,79.1539,VALID,608.439,VALID,23.6229,VALID,290,VALID,0,
2012-09-17, 09:27:04,VALID,920.089,VALID,0,VALID,78.9557,VALID,573.843,VALID,23.9176,VALID,290,VALID,0,
2012-09-17, 09:28:04,VALID,920.105,VALID,0,VALID,76.9736,VALID,599.307,VALID,24.2477,VALID,290,VALID,0,
2012-09-17, 09:29:04,VALID,920.109,VALID,0,VALID,75.7615,VALID,585.339,VALID,24.521,VALID,290,VALID,0,
2012-09-17, 09:30:04,VALID,920.094,VALID,0,VALID,76.2418,VALID,588.24,VALID,24.814,VALID,290,VALID,0,
2012-09-17, 09:31:04,VALID,920.081,VALID,0,VALID,73.8938,VALID,564.496,VALID,25.0679,VALID,209,VALID,0,
2012-09-17, 09:32:04,VALID,920.065,VALID,0,VALID,73.4669,VALID,497.99,VALID,25.1264,VALID,209,VALID,0,
2012-09-17, 09:33:04,VALID,920.077,VALID,0,VALID,72.2471,VALID,567.612,VALID,25.1069,VALID,209,VALID,0,
2012-09-17, 09:34:04,VALID,920.073,VALID,0,VALID,73.6498,VALID,599.951,VALID,24.9507,VALID,209,VALID,0,
2012-09-17, 09:35:04,VALID,920.056,VALID,0,VALID,73.8709,VALID,603.604,VALID,24.9507,VALID,210,VALID,0,
2012-09-17, 09:36:04,VALID,920.046,VALID,0,VALID,73.6803,VALID,602.423,VALID,24.853,VALID,238,VALID,0,
2012-09-17, 09:37:04,VALID,920.077,VALID,0,VALID,74.7705,VALID,587.811,VALID,24.7163,VALID,225,VALID,0,
2012-09-17, 09:38:04,VALID,920.076,VALID,0,VALID,74.6714,VALID,557.512,VALID,24.5992,VALID,223,VALID,0,
2012-09-17, 09:39:04,VALID,920.038,VALID,0,VALID,74.8543,VALID,533.66,VALID,24.6187,VALID,200,VALID,0,
2012-09-17, 09:40:04,VALID,920.039,VALID,0,VALID,76.1198,VALID,509.593,VALID,24.6382,VALID,235,VALID,0,
2012-09-17, 09:41:04,VALID,920.054,VALID,0,VALID,74.8467,VALID,374.218,VALID,24.5992,VALID,235,VALID,0,
2012-09-17, 09:42:04,VALID,920.043,VALID,0,VALID,76.7144,VALID,605.109,VALID,24.3258,VALID,235,VALID,0,
2012-09-17, 09:43:04,VALID,919.968,VALID,0,VALID,77.7512,VALID,331.778,VALID,24.2672,VALID,235,VALID,0,
2012-09-17, 09:44:04,VALID,919.952,VALID,0,VALID,77.7893,VALID,445.021,VALID,24.3648,VALID,263,VALID,0,
2012-09-17, 09:45:04,VALID,920.011,VALID,0,VALID,76.7068,VALID,452.435,VALID,24.521,VALID,263,VALID,0,
2012-09-17, 09:46:04,VALID,919.924,VALID,0,VALID,76.7602,VALID,636.374,VALID,24.6149,VALID,263,VALID,0,
2012-09-17, 09:47:04,VALID,919.777,VALID,0,VALID,74.7628,VALID,649.804,VALID,24.8316,VALID,170,VALID,0.0957031,
2012-09-17, 09:48:04,VALID,920.039,VALID,0,VALID,74.8924,VALID,650.126,VALID,24.8511,VALID,149,VALID,0,
2012-09-17, 09:49:04,VALID,919.941,VALID,0,VALID,73.909,VALID,234.974,VALID,24.8511,VALID,149,VALID,0,
2012-09-17, 09:50:04,VALID,919.944,VALID,0,VALID,74.5646,VALID,279.347,VALID,24.7144,VALID,149,VALID,0,
2012-09-17, 09:51:04,VALID,919.826,VALID,0,VALID,75.1745,VALID,332.208,VALID,24.6559,VALID,149,VALID,0,
2012-09-17, 09:52:04,VALID,920.011,VALID,0,VALID,75.548,VALID,676.02,VALID,24.6363,VALID,149,VALID,0,
2012-09-17, 09:53:04,VALID,920.107,VALID,0,VALID,75.1364,VALID,677.309,VALID,24.8316,VALID,149,VALID,0,
2012-09-17, 09:54:04,VALID,919.933,VALID,0,VALID,74.5418,VALID,674.73,VALID,25.1636,VALID,149,VALID,0,
2012-09-17, 09:55:04,VALID,919.918,VALID,0,VALID,73.0552,VALID,657.54,VALID,25.2808,VALID,146,VALID,0,
2012-09-17, 09:56:04,VALID,919.902,VALID,0,VALID,72.9408,VALID,657.755,VALID,25.1617,VALID,75,VALID,0,
2012-09-17, 09:57:04,VALID,919.815,VALID,0,VALID,73.3754,VALID,648.945,VALID,25.2593,VALID,74,VALID,0,
2012-09-17, 09:58:04,VALID,919.778,VALID,0,VALID,73.5888,VALID,648.515,VALID,25.3589,VALID,72,VALID,0,
2012-09-17, 09:59:04,VALID,919.773,VALID,0,VALID,73.3678,VALID,670.11,VALID,25.5366,VALID,25,VALID,0,
2012-09-17, 10:00:04,VALID,919.777,VALID,0,VALID,71.5,VALID,328.877,VALID,25.771,VALID,13,VALID,0,
2012-09-17, 10:01:04,VALID,919.765,VALID,0,VALID,71.6677,VALID,646.581,VALID,25.9058,VALID,13,VALID,0,
2012-09-17, 10:02:04,VALID,919.781,VALID,0,VALID,70.1431,VALID,676.235,VALID,26.0035,VALID,199,VALID,0,
2012-09-17, 10:03:04,VALID,919.734,VALID,0,VALID,70.6843,VALID,702.88,VALID,25.9839,VALID,234,VALID,0,
2012-09-17, 10:04:04,VALID,919.776,VALID,0,VALID,71.4162,VALID,658.829,VALID,26.0425,VALID,200,VALID,0,
2012-09-17, 10:05:04,VALID,919.783,VALID,0,VALID,71.2256,VALID,667.317,VALID,26.1422,VALID,200,VALID,0,
2012-09-17, 10:06:04,VALID,919.79,VALID,0,VALID,70.2345,VALID,657.218,VALID,26.277,VALID,200,VALID,0,
2012-09-17, 10:07:04,VALID,919.818,VALID,0,VALID,69.0605,VALID,664.309,VALID,26.4353,VALID,200,VALID,0,
2012-09-17, 10:08:04,VALID,919.771,VALID,0,VALID,65.5156,VALID,676.02,VALID,26.5895,VALID,200,VALID,0,
2012-09-17, 10:09:04,VALID,919.748,VALID,0,VALID,65.691,VALID,694.392,VALID,26.6677,VALID,200,VALID,0,
2012-09-17, 10:10:04,VALID,919.803,VALID,0,VALID,66.6058,VALID,696.971,VALID,26.6482,VALID,143,VALID,0,
2012-09-17, 10:11:04,VALID,919.806,VALID,0,VALID,66.5219,VALID,736.617,VALID,26.533,VALID,141,VALID,0,
2012-09-17, 10:12:04,VALID,919.803,VALID,0,VALID,66.8802,VALID,707.285,VALID,26.6091,VALID,195,VALID,0,
2012-09-17, 10:13:04,VALID,919.821,VALID,0,VALID,67.0022,VALID,696.756,VALID,26.824,VALID,195,VALID,0,
2012-09-17, 10:14:04,VALID,919.815,VALID,0,VALID,65.2107,VALID,631.002,VALID,26.8826,VALID,138,VALID,0,
2012-09-17, 10:15:04,VALID,919.793,VALID,0,VALID,64.6694,VALID,529.255,VALID,26.9217,VALID,179,VALID,0,
2012-09-17, 10:16:04,VALID,919.797,VALID,0,VALID,63.8232,VALID,586.844,VALID,26.9803,VALID,197,VALID,0,
2012-09-17, 10:17:04,VALID,919.779,VALID,0,VALID,64.2349,VALID,583.191,VALID,27.0389,VALID,155,VALID,0,
2012-09-17, 10:18:04,VALID,919.807,VALID,0,VALID,64.9972,VALID,627.671,VALID,27.0389,VALID,155,VALID,0,
2012-09-17, 10:19:04,VALID,919.791,VALID,0,VALID,67.5206,VALID,648.192,VALID,27.1562,VALID,244,VALID,0,
2012-09-17, 10:20:04,VALID,919.734,VALID,0,VALID,66.156,VALID,637.448,VALID,27.3907,VALID,250,VALID,0,
2012-09-17, 10:21:04,VALID,919.784,VALID,0,VALID,63.7851,VALID,491.758,VALID,27.547,VALID,27,VALID,0,
2012-09-17, 10:22:04,VALID,919.773,VALID,0,VALID,65.104,VALID,699.227,VALID,27.508,VALID,348,VALID,0,
2012-09-17, 10:23:04,VALID,919.78,VALID,0,VALID,63.038,VALID,765.303,VALID,27.4493,VALID,242,VALID,0,
2012-09-17, 10:24:04,VALID,919.707,VALID,0,VALID,61.803,VALID,757.138,VALID,27.3495,VALID,152,VALID,0,
2012-09-17, 10:25:04,VALID,919.704,VALID,0,VALID,63.4268,VALID,735.435,VALID,27.3125,VALID,179,VALID,0,
2012-09-17, 10:26:04,VALID,919.693,VALID,0,VALID,62.8246,VALID,755.956,VALID,27.2734,VALID,150,VALID,0,
2012-09-17, 10:27:04,VALID,919.669,VALID,0,VALID,61.9936,VALID,752.948,VALID,27.2127,VALID,200,VALID,0,
2012-09-17, 10:28:04,VALID,919.602,VALID,0,VALID,62.2452,VALID,774.436,VALID,27.1541,VALID,219,VALID,0,
2012-09-17, 10:29:04,VALID,919.566,VALID,0,VALID,64.3416,VALID,755.849,VALID,27.2127,VALID,179,VALID,0,
2012-09-17, 10:30:04,VALID,919.575,VALID,0,VALID,65.0201,VALID,794.85,VALID,27.33,VALID,136,VALID,0,
2012-09-17, 10:31:04,VALID,919.591,VALID,0,VALID,61.3761,VALID,795.817,VALID,27.5059,VALID,163,VALID,0,
2012-09-17, 10:32:04,VALID,919.564,VALID,0,VALID,60.1564,VALID,802.585,VALID,27.7013,VALID,163,VALID,0,
2012-09-17, 10:33:04,VALID,919.571,VALID,0,VALID,61.1017,VALID,802.263,VALID,27.8597,VALID,104,VALID,0,
2012-09-17, 10:34:04,VALID,919.539,VALID,0,VALID,61.1398,VALID,814.941,VALID,27.8597,VALID,189,VALID,0,
2012-09-17, 10:35:04,VALID,919.475,VALID,0,VALID,60.9949,VALID,306.637,VALID,27.7013,VALID,161,VALID,0.484766,
2012-09-17, 10:36:04,VALID,919.541,VALID,0,VALID,64.5475,VALID,313.728,VALID,27.2518,VALID,182,VALID,0,
2012-09-17, 10:37:04,VALID,919.556,VALID,0,VALID,63.221,VALID,687.301,VALID,26.9783,VALID,153,VALID,0,
2012-09-17, 10:38:04,VALID,919.541,VALID,0,VALID,63.9223,VALID,342.845,VALID,26.9392,VALID,148,VALID,0,
2012-09-17, 10:39:04,VALID,919.527,VALID,0,VALID,64.0214,VALID,354.341,VALID,26.9392,VALID,168,VALID,0,
2012-09-17, 10:40:04,VALID,919.506,VALID,0,VALID,63.8537,VALID,802.693,VALID,26.9392,VALID,199,VALID,0,
2012-09-17, 10:41:04,VALID,919.549,VALID,0,VALID,62.6874,VALID,801.296,VALID,27.0369,VALID,196,VALID,0,
2012-09-17, 10:42:04,VALID,919.498,VALID,0,VALID,62.6416,VALID,762.94,VALID,26.9978,VALID,164,VALID,0,
2012-09-17, 10:43:04,VALID,919.431,VALID,0,VALID,63.6784,VALID,594.579,VALID,26.9587,VALID,186,VALID,0,
2012-09-17, 10:44:04,VALID,919.407,VALID,0,VALID,63.282,VALID,352.622,VALID,27.076,VALID,190,VALID,0,
2012-09-17, 10:45:04,VALID,919.378,VALID,0,VALID,64.9134,VALID,870.058,VALID,27.0955,VALID,195,VALID,0,
2012-09-17, 10:46:04,VALID,919.365,VALID,0,VALID,63.869,VALID,851.364,VALID,27.2518,VALID,200,VALID,0,
2012-09-17, 10:47:04,VALID,919.236,VALID,0,VALID,62.6797,VALID,870.273,VALID,27.4472,VALID,202,VALID,0,
2012-09-17, 10:48:04,VALID,919.093,VALID,0,VALID,61.9555,VALID,457.914,VALID,27.5449,VALID,224,VALID,0,
2012-09-17, 10:49:04,VALID,919.224,VALID,0,VALID,62.3748,VALID,639.275,VALID,27.5059,VALID,233,VALID,0,
2012-09-17, 10:50:04,VALID,918.993,VALID,0,VALID,64.8829,VALID,819.883,VALID,27.4472,VALID,195,VALID,0,
2012-09-17, 10:51:04,VALID,919.202,VALID,0,VALID,64.3264,VALID,810.106,VALID,27.5645,VALID,205,VALID,0,
2012-09-17, 10:52:04,VALID,919.242,VALID,0,VALID,62.5654,VALID,821.817,VALID,27.6427,VALID,216,VALID,0.0785156,
2012-09-17, 10:53:04,VALID,919.262,VALID,0,VALID,62.3138,VALID,830.735,VALID,27.762,VALID,191,VALID,0,
2012-09-17, 10:54:04,VALID,919.113,VALID,0,VALID,63.8156,VALID,782.386,VALID,27.8185,VALID,176,VALID,0,
2012-09-17, 10:55:04,VALID,918.651,VALID,0,VALID,63.3048,VALID,806.668,VALID,27.5819,VALID,99,VALID,0.402344,
2012-09-17, 10:56:04,VALID,919.174,VALID,0,VALID,62.6721,VALID,825.148,VALID,27.4668,VALID,138,VALID,0,
2012-09-17, 10:57:04,VALID,920.444,VALID,0,VALID,60.7053,VALID,846.314,VALID,27.6622,VALID,69,VALID,0,
2012-09-17, 10:58:04,VALID,919.143,VALID,0,VALID,62.7941,VALID,848.14,VALID,27.6622,VALID,83,VALID,0,
2012-09-17, 10:59:04,VALID,919.066,VALID,0,VALID,62.2833,VALID,849,VALID,27.5254,VALID,67,VALID,0,
2012-09-17, 11:00:04,VALID,919.063,VALID,0,VALID,61.0102,VALID,800.437,VALID,27.5254,VALID,78,VALID,0,
2012-09-17, 11:01:04,VALID,919.015,VALID,0,VALID,60.3927,VALID,856.951,VALID,27.7599,VALID,183,VALID,0,
2012-09-17, 11:02:04,VALID,919.139,VALID,0,VALID,59.9353,VALID,881.77,VALID,27.8772,VALID,187,VALID,0,
2012-09-17, 11:03:04,VALID,919.063,VALID,0,VALID,60.0192,VALID,886.39,VALID,27.8772,VALID,209,VALID,0,
2012-09-17, 11:04:04,VALID,919.125,VALID,0,VALID,60.9035,VALID,813.437,VALID,27.8967,VALID,164,VALID,0.423828,
2012-09-17, 11:05:04,VALID,918.975,VALID,0,VALID,60.7358,VALID,689.88,VALID,27.7404,VALID,218,VALID,0.0441406,
2012-09-17, 11:06:04,VALID,918.993,VALID,0,VALID,61.4371,VALID,510.775,VALID,27.7795,VALID,201,VALID,0,
2012-09-17, 11:07:04,VALID,918.935,VALID,0,VALID,61.7116,VALID,552.785,VALID,27.8772,VALID,211,VALID,0,
2012-09-17, 11:08:04,VALID,918.933,VALID,0,VALID,62.7865,VALID,478.543,VALID,27.7404,VALID,174,VALID,0,
2012-09-17, 11:09:04,VALID,918.791,VALID,0,VALID,60.2631,VALID,552.247,VALID,27.7795,VALID,186,VALID,0.325781,
2012-09-17, 11:10:04,VALID,918.854,VALID,0,VALID,59.4169,VALID,698.045,VALID,27.6448,VALID,63,VALID,0.537109,
2012-09-17, 11:11:04,VALID,918.932,VALID,0,VALID,61.7497,VALID,683.97,VALID,27.5254,VALID,63,VALID,0.00351562,
2012-09-17, 11:12:04,VALID,918.963,VALID,0,VALID,63.3963,VALID,557.512,VALID,27.4082,VALID,165,VALID,0,
2012-09-17, 11:13:04,VALID,918.866,VALID,0,VALID,62.977,VALID,607.58,VALID,27.3691,VALID,172,VALID,0,
2012-09-17, 11:14:04,VALID,918.925,VALID,0,VALID,60.0192,VALID,456.625,VALID,27.4082,VALID,85,VALID,0,
2012-09-17, 11:15:04,VALID,919.075,VALID,0,VALID,61.9098,VALID,351.547,VALID,27.2714,VALID,66,VALID,0,
2012-09-17, 11:16:04,VALID,918.891,VALID,0,VALID,62.4358,VALID,378.945,VALID,27.0369,VALID,156,VALID,0,
2012-09-17, 11:17:04,VALID,918.916,VALID,0,VALID,63.7394,VALID,492.295,VALID,26.9392,VALID,127,VALID,0,
2012-09-17, 11:18:04,VALID,918.867,VALID,0,VALID,64.6161,VALID,546.231,VALID,26.9978,VALID,77,VALID,0.0121094,
2012-09-17, 11:19:04,VALID,918.834,VALID,0,VALID,64.8219,VALID,602.852,VALID,26.9978,VALID,172,VALID,0,
2012-09-17, 11:20:04,VALID,918.862,VALID,0,VALID,62.8322,VALID,635.944,VALID,27.0389,VALID,68,VALID,0.00234375,
2012-09-17, 11:21:04,VALID,918.73,VALID,0,VALID,63.7394,VALID,765.411,VALID,27.0194,VALID,20,VALID,0,